Wind_Speed
47 47 47 46 47 49 49 49 49 48 48 47 46 45 44 43 42 42 43 43 44 45 46 47 47 48 48 48 49 50 50 51 52 52 53 54 54 55 55 56 57 58
47 47 47 47 47 48 48 49 49 49 50 49 48 47 47 45 44 43 44 45 46 47 48 48 49 50 50 50 50 51 52 53 53 54 54 55 55 56 57 57 58 59
49 48 48 48 48 48 48 49 49 50 51 50 49 49 49 47 46 46 46 47 48 49 49 49 50 51 52 51 52 53 54 54 55 55 56 56 57 57 58 59 59 60
50 49 49 49 49 49 49 49 50 51 52 51 49 50 50 49 49 49 49 49 50 51 51 51 51 53 53 53 54 55 55 56 56 57 57 57 58 58 59 60 60 60
51 51 50 50 51 51 50 51 51 52 53 51 50 51 52 51 51 51 51 52 53 53 52 52 53 54 54 54 56 56 57 57 58 58 58 58 59 59 60 60 60 60
53 53 52 52 53 53 52 52 53 53 53 52 52 53 53 52 53 53 53 54 54 55 54 54 55 56 56 56 57 58 58 58 58 58 59 59 59 60 60 60 60 59
55 55 55 54 55 55 54 54 54 54 54 54 54 54 54 54 55 55 55 56 56 56 56 56 57 58 58 58 59 59 59 59 59 59 59 59 60 60 60 60 59 58
57 57 57 57 57 57 57 56 55 55 55 55 55 55 55 55 56 56 56 57 58 58 58 58 59 60 60 60 60 60 60 60 59 59 59 59 60 60 60 59 58 57
59 59 59 59 59 59 58 57 57 57 57 57 57 57 57 57 58 58 58 58 59 59 60 60 61 61 61 61 61 60 60 60 60 59 59 59 60 59 59 57 56 56
61 61 61 61 60 60 60 59 59 58 58 58 58 58 58 58 59 59 59 59 60 60 61 62 62 62 62 61 61 60 60 60 60 59 59 59 59 58 57 56 56 56
63 63 63 63 62 62 62 61 61 60 60 59 59 59 59 59 59 59 60 60 60 61 62 62 62 61 61 61 60 60 60 60 59 59 58 58 57 57 56 56 56 57
64 64 64 64 64 64 64 63 62 62 61 61 60 59 60 60 60 60 60 61 61 61 62 62 61 61 60 60 60 59 59 59 58 57 57 56 57 57 56 56 57 58
65 65 64 64 65 65 64 64 63 63 62 61 61 60 60 61 60 60 60 61 61 61 61 61 60 60 60 59 59 58 57 57 56 56 56 56 57 56 56 57 58 59
65 65 64 64 64 64 64 64 63 63 62 62 61 61 61 61 60 60 60 60 61 60 60 59 59 59 58 58 57 56 56 55 55 56 56 56 57 57 57 58 59 59
68 66 65 64 63 63 63 63 62 62 62 61 61 61 60 60 60 60 59 60 60 60 59 58 58 58 57 56 55 55 55 55 55 56 57 57 58 58 59 59 59 59
70 69 67 65 64 63 63 63 63 62 62 61 61 60 60 60 59 59 59 59 59 59 58 58 57 56 56 55 55 54 55 56 56 58 59 59 60 59 59 59 59 60
70 70 69 67 65 64 64 63 63 62 61 61 60 60 59 59 59 59 58 59 58 58 57 57 56 56 55 55 55 56 57 58 59 60 60 60 59 59 59 59 59 59
68 68 68 67 66 65 65 65 64 63 62 61 60 59 59 59 58 58 58 58 58 57 56 56 56 56 56 56 57 58 59 60 61 61 60 59 58 58 59 59 58 58
67 66 66 66 65 65 65 64 64 63 62 61 60 59 59 58 58 58 57 57 56 56 56 56 57 57 58 59 60 61 61 61 61 59 58 58 58 59 59 58 57 56
65 66 66 65 64 64 63 63 62 62 61 61 60 59 59 58 57 57 56 56 56 57 58 58 59 60 61 61 62 62 61 60 58 58 58 58 59 58 57 56 56 56
61 63 64 64 64 63 62 60 59 58 58 58 58 58 57 57 56 56 56 56 58 59 60 61 62 62 62 62 61 60 59 58 58 58 58 58 57 56 55 56 56 57
59 60 61 62 62 62 61 60 59 57 56 56 56 56 56 56 57 57 58 60 61 61 62 62 62 61 61 60 59 59 59 59 58 58 57 56 55 55 55 56 57 58
58 59 59 59 58 58 58 58 58 58 58 59 59 59 59 59 60 60 61 61 62 61 61 60 60 59 59 59 59 59 58 58 57 56 55 55 55 55 56 57 58 59
57 58 58 57 56 56 55 54 55 55 56 57 57 57 58 58 59 59 59 60 59 59 58 58 58 58 59 59 59 58 57 55 54 54 54 54 55 56 57 58 59 60
58 57 56 56 55 54 53 53 53 53 53 53 54 54 55 56 56 56 57 57 57 57 58 58 59 59 59 57 56 54 53 53 52 53 54 55 56 57 58 59 60 60
59 58 57 55 55 54 53 53 53 53 53 54 54 55 55 55 55 56 56 57 57 58 58 58 57 55 54 53 51 51 51 51 52 53 55 56 57 58 58 59 60 60
Wind_Direction
265 265 264 262 260 260 260 261 263 265 267 269 270 270 269 269 269 270 272 274 277 279 280 281 282 283 284 285 287 287 288 289 289 290 291 291 292 293 294 295 296 296
263 264 264 262 260 260 260 261 263 265 267 269 271 272 271 270 270 270 271 274 276 277 279 280 281 282 283 285 286 287 288 289 289 290 291 291 292 293 294 295 295 296
262 262 262 262 261 260 259 260 262 264 267 269 271 272 271 270 270 270 271 273 274 276 277 279 280 281 283 284 285 286 287 288 289 290 291 291 292 293 293 294 295 296
260 261 261 261 261 260 260 261 262 264 266 268 270 271 270 270 270 270 271 272 273 275 277 278 280 281 282 283 284 285 286 287 288 289 290 291 291 292 293 293 295 296
260 260 260 260 260 261 261 262 263 265 266 268 269 269 269 269 269 269 270 271 273 275 277 279 280 281 282 283 284 285 285 286 287 288 289 290 291 292 292 293 295 296
259 260 260 260 260 260 261 262 263 264 266 268 268 267 268 268 268 269 270 271 273 275 277 279 280 281 282 283 283 284 284 285 286 288 289 289 290 291 292 293 295 296
258 260 260 261 261 261 261 262 263 265 266 267 267 267 267 267 267 268 269 271 273 275 277 278 279 280 281 282 282 283 284 285 286 287 288 289 290 291 292 293 294 295
257 258 260 260 261 261 262 262 263 264 265 266 266 266 267 267 267 268 269 271 273 274 276 277 278 279 280 281 281 282 283 284 286 287 288 289 290 291 292 293 294 294
256 257 259 260 261 262 262 263 263 264 264 265 265 266 266 267 268 269 270 271 272 274 275 276 277 278 279 280 281 282 283 284 285 286 287 288 289 290 291 292 293 292
256 257 258 259 261 262 263 263 263 264 264 264 265 265 266 267 268 269 270 271 272 273 274 275 276 277 278 279 280 281 282 283 285 286 286 287 288 289 290 291 291 290
256 256 258 259 260 261 262 262 263 264 264 264 265 265 266 267 268 269 270 271 272 273 274 275 276 277 278 279 280 281 282 283 284 285 285 286 287 288 289 289 289 290
257 257 257 258 259 260 261 262 262 263 263 264 264 265 266 267 268 269 270 271 272 273 274 275 276 276 277 278 280 281 281 282 282 283 284 285 286 287 288 288 289 289
257 257 258 258 259 260 260 261 262 262 263 264 264 265 266 267 268 269 270 271 271 272 273 274 275 276 277 278 279 280 280 280 281 281 283 284 285 286 287 288 288 289
258 258 258 258 259 259 260 261 261 262 263 263 264 264 265 266 267 268 269 270 270 271 272 274 275 276 277 277 278 278 278 279 280 281 283 284 285 286 287 287 288 289
257 257 258 258 259 259 260 260 261 261 262 263 264 264 265 266 266 267 268 269 270 271 272 273 274 275 276 276 276 277 277 278 280 281 283 284 285 286 287 287 289 291
258 257 257 257 258 258 259 259 260 261 262 263 263 264 265 265 266 267 268 269 270 271 272 273 273 274 275 275 276 276 277 279 280 282 283 284 285 286 287 289 291 292
259 258 257 257 258 258 258 259 259 260 261 262 263 264 265 266 267 268 268 269 270 271 271 272 273 274 274 275 275 277 278 280 281 283 284 285 286 287 289 290 291 292
260 259 258 258 259 259 260 260 260 261 262 263 264 265 265 266 267 268 268 269 269 270 271 271 272 273 274 275 277 278 280 281 283 284 285 286 288 289 290 290 291 293
261 260 259 259 259 260 261 261 261 262 262 263 264 265 265 266 267 267 268 268 268 269 270 271 273 274 276 277 279 280 282 283 284 285 286 288 289 289 289 291 293 296
262 261 260 260 260 261 262 262 262 263 263 264 264 264 265 265 265 265 265 266 268 269 271 273 275 276 278 279 281 282 283 284 286 287 288 288 288 289 291 293 296 297
265 264 263 262 261 262 262 263 264 264 264 264 264 264 264 263 263 264 265 267 270 272 274 276 277 278 280 281 282 284 285 286 287 287 287 288 289 291 293 295 297 298
267 266 266 265 264 263 262 263 263 263 264 264 263 264 264 265 266 267 269 271 273 275 276 278 279 281 282 283 285 285 286 286 286 286 287 289 291 293 294 295 296 297
268 267 268 268 269 268 266 265 264 264 264 265 265 266 267 269 270 272 273 275 276 278 279 280 282 283 284 285 285 285 285 285 286 288 290 291 292 293 294 295 296 297
269 267 267 268 269 270 270 269 269 268 268 269 269 270 271 272 274 275 276 277 279 280 281 283 284 284 285 285 284 285 285 286 288 289 290 291 292 293 294 295 296 297
268 267 267 267 268 269 270 271 272 272 273 273 274 275 276 276 277 278 279 280 281 282 283 284 284 284 284 284 284 286 287 288 289 290 290 291 292 293 295 296 296 297
268 266 266 266 267 269 270 272 273 275 276 277 278 278 278 279 280 280 281 281 282 282 282 283 283 283 284 285 286 287 288 289 290 290 291 292 293 294 295 296 297 298
Height
5825 5826 5827 5828 5828 5828 5829 5829 5828 5828 5827 5827 5827 5827 5827 5827 5827 5826 5824 5823 5822 5821 5820 5819 5818 5817 5816 5815 5813 5812 5810 5808 5806 5805 5803 5801 5799 5797 5795 5793 5790 5788
5820 5820 5821 5822 5823 5823 5824 5824 5823 5823 5822 5822 5823 5822 5822 5822 5822 5821 5820 5819 5817 5816 5815 5814 5813 5811 5811 5810 5808 5807 5805 5803 5801 5799 5797 5795 5793 5791 5789 5787 5785 5783
5814 5815 5815 5816 5817 5817 5818 5818 5818 5818 5817 5818 5818 5817 5817 5817 5816 5816 5815 5814 5812 5811 5810 5809 5808 5806 5805 5805 5803 5801 5799 5797 5795 5793 5792 5790 5788 5786 5784 5781 5779 5777
5809 5810 5810 5811 5811 5811 5812 5813 5813 5813 5812 5813 5813 5812 5811 5811 5811 5810 5809 5808 5807 5805 5805 5804 5802 5801 5800 5799 5797 5795 5793 5791 5789 5788 5786 5784 5782 5780 5778 5776 5774 5771
5804 5805 5805 5805 5806 5806 5807 5808 5808 5807 5807 5807 5808 5806 5805 5806 5805 5804 5803 5802 5801 5800 5799 5798 5797 5795 5794 5793 5791 5789 5787 5785 5784 5782 5781 5779 5776 5774 5772 5770 5768 5766
5799 5800 5800 5800 5800 5801 5802 5802 5802 5801 5801 5802 5801 5800 5799 5800 5799 5798 5797 5796 5795 5794 5794 5792 5791 5789 5788 5787 5784 5783 5781 5780 5778 5777 5775 5773 5770 5768 5766 5764 5762 5760
5794 5794 5794 5794 5794 5794 5795 5796 5796 5796 5796 5795 5794 5793 5794 5793 5792 5792 5791 5790 5789 5788 5788 5786 5785 5783 5782 5780 5778 5777 5775 5774 5772 5771 5769 5766 5764 5762 5760 5758 5756 5754
5788 5788 5788 5788 5788 5788 5789 5790 5790 5790 5789 5789 5788 5787 5787 5787 5786 5786 5785 5784 5783 5782 5781 5780 5778 5777 5775 5774 5772 5770 5769 5768 5766 5764 5762 5760 5758 5755 5753 5752 5750 5748
5782 5782 5782 5782 5782 5782 5782 5783 5783 5783 5782 5782 5781 5781 5781 5780 5779 5779 5779 5778 5777 5776 5775 5774 5772 5770 5769 5768 5766 5764 5763 5761 5760 5758 5756 5754 5751 5749 5748 5746 5744 5742
5775 5776 5776 5776 5776 5776 5776 5776 5776 5776 5775 5775 5775 5775 5774 5773 5773 5773 5772 5772 5771 5770 5769 5767 5766 5764 5762 5761 5760 5758 5757 5755 5753 5751 5749 5747 5745 5743 5742 5740 5738 5736
5768 5769 5769 5769 5769 5769 5769 5769 5769 5769 5768 5768 5768 5768 5767 5767 5766 5766 5766 5765 5764 5763 5761 5760 5759 5758 5756 5755 5754 5752 5751 5749 5747 5745 5743 5741 5739 5738 5736 5734 5731 5729
5761 5761 5762 5762 5762 5762 5762 5762 5762 5761 5761 5761 5761 5761 5760 5760 5760 5759 5759 5758 5757 5756 5754 5753 5752 5751 5750 5748 5747 5746 5744 5742 5740 5738 5736 5735 5733 5731 5730 5727 5725 5723
5754 5754 5755 5755 5755 5755 5755 5755 5755 5755 5755 5755 5754 5754 5754 5753 5753 5752 5752 5751 5749 5748 5747 5746 5745 5744 5743 5741 5740 5739 5737 5735 5733 5732 5730 5729 5727 5725 5723 5721 5719 5717
5747 5747 5747 5748 5748 5748 5748 5748 5748 5748 5748 5747 5747 5747 5747 5746 5746 5745 5745 5744 5742 5741 5741 5739 5738 5737 5736 5734 5733 5731 5730 5728 5727 5726 5724 5722 5721 5719 5717 5715 5713 5711
5740 5740 5741 5741 5741 5741 5741 5741 5741 5741 5741 5740 5740 5740 5740 5739 5739 5738 5738 5737 5735 5734 5734 5732 5730 5729 5728 5727 5725 5724 5723 5722 5721 5719 5718 5716 5714 5712 5710 5709 5707 5705
5733 5733 5733 5733 5734 5734 5734 5734 5734 5734 5733 5733 5733 5733 5733 5732 5731 5731 5731 5729 5728 5727 5726 5724 5723 5722 5721 5720 5719 5718 5717 5716 5714 5713 5711 5710 5708 5706 5704 5702 5701 5698
5726 5726 5726 5726 5727 5727 5726 5726 5726 5726 5726 5726 5726 5725 5725 5725 5724 5724 5723 5722 5721 5719 5718 5717 5716 5715 5714 5713 5712 5711 5710 5709 5708 5706 5705 5703 5702 5700 5698 5696 5694 5692
5719 5719 5719 5719 5719 5719 5719 5719 5719 5719 5719 5719 5718 5718 5717 5717 5717 5716 5715 5714 5713 5712 5711 5710 5709 5708 5707 5707 5706 5705 5704 5703 5701 5700 5698 5697 5695 5693 5691 5689 5687 5685
5711 5712 5712 5712 5712 5712 5711 5712 5712 5712 5711 5711 5711 5710 5710 5710 5709 5708 5707 5706 5705 5704 5703 5703 5702 5702 5702 5701 5700 5699 5697 5696 5695 5693 5692 5690 5689 5687 5684 5682 5681 5678
5704 5704 5704 5704 5704 5704 5704 5705 5704 5704 5704 5704 5704 5703 5703 5702 5701 5701 5700 5699 5699 5698 5697 5697 5696 5696 5695 5694 5693 5692 5690 5689 5688 5687 5686 5684 5682 5680 5678 5676 5674 5672
5697 5697 5697 5697 5697 5698 5698 5698 5698 5697 5697 5697 5696 5696 5695 5695 5694 5694 5694 5693 5693 5693 5692 5691 5690 5690 5689 5687 5686 5685 5684 5683 5681 5680 5679 5677 5675 5673 5671 5669 5667 5665
5691 5690 5689 5690 5690 5691 5691 5692 5692 5691 5691 5690 5690 5690 5689 5689 5689 5688 5688 5688 5687 5687 5686 5685 5684 5683 5682 5680 5679 5678 5677 5676 5675 5673 5672 5670 5668 5667 5665 5663 5661 5659
5685 5684 5683 5683 5683 5683 5683 5684 5684 5685 5684 5684 5684 5684 5684 5683 5683 5682 5682 5681 5681 5680 5679 5678 5677 5676 5675 5674 5673 5672 5670 5669 5668 5667 5665 5664 5662 5660 5658 5656 5655 5652
5678 5678 5677 5677 5676 5676 5676 5676 5677 5677 5677 5677 5677 5678 5677 5677 5676 5676 5675 5674 5674 5673 5672 5671 5670 5669 5668 5667 5666 5665 5664 5663 5662 5660 5659 5657 5655 5654 5652 5650 5648 5645
5672 5672 5671 5671 5671 5671 5671 5671 5671 5671 5671 5671 5671 5671 5671 5670 5669 5669 5668 5667 5667 5666 5665 5664 5663 5662 5661 5660 5659 5659 5657 5656 5655 5653 5652 5650 5648 5647 5645 5643 5641 5638
5667 5666 5666 5666 5666 5665 5666 5666 5665 5665 5665 5665 5665 5665 5664 5663 5663 5662 5661 5661 5660 5659 5658 5657 5656 5655 5655 5654 5653 5652 5651 5649 5648 5646 5645 5643 5641 5639 5638 5635 5633 5631